Voltar ao catálogo

GEESAT 5-06

AtivoComunicaçõesLEO
NORAD 65555·PAYLOAD·🇨🇳 China

Lançado Sep 8, 2025 de Yellow Sea Launch Area

Loading…

Próximas Passagens (próximas 24 horas)

TLE

AtualizadoSource: Space-Track

Época: Sep 14, 2026, 12:09 UTC

1 65555U 25201F   26257.50652130  .00001168  00000-0  16423-3 0  9995
2 65555  49.9932 344.9007 0013502 304.8302  55.1366 14.84451449 55057

Acompanhe GEESAT 5-06 em tempo real com AllMySat

Download on the App Store